Tracking 29892 objects as of 21-Nov-2024
HD Live streaming from Space Station
objects crossing your sky now

SL-8 DEB

Track SL-8 DEB now!
10-day predictions


NORAD ID: 27743
Int'l Code: 1991-009CY
Perigee: 1,490.4 km
Apogee: 1,706.9 km
Inclination: 74.1 °
Period: 118.0 minutes
Semi major axis: 7969 km
RCS: 0.0193 m2 (small)
Launch date: February 12, 1991
Source: Commonwealth of Independent States (former USSR) (CIS)
Launch site: PLESETSK MISSILE AND SPACE COMPLEX (PKMTR)

Note: This is SATELLITE DEBRIS
Your satellite tracking list
Your tracking list is empty




NASA's NSSDC Master Catalog

Two Line Element Set (TLE):
1 27743U 91009CY  24326.06877612 -.00000091  00000-0 -71614-3 0  9990
2 27743  74.0637 220.3030 0135803   2.7600  61.1392 12.20235186185676
Source of the keplerian elements: AFSPC